FW0059 Weather Reports


time (UTC)temp
C
wind
direction
speed
KPH
gust
KPH
rain 1hr
cm
rain 24hr
cm
rain mn
cm
humidity
%
barometer
mb
20260906143034 29 301 0.0 0.0 0.00 0.00 0.00 81 1012.1
20260906141526 28 301 0.0 0.0 0.00 0.00 0.00 83 1012.1
20260906140018 27 301 0.0 0.0 0.00 0.00 0.00 83 1012.3
20260906134522 27 301 0.0 0.0 0.00 0.00 0.00 83 1012.4
20260906133010 27 301 0.0 0.0 0.00 0.00 0.00 83 1012.4
20260906131538 26 301 0.0 0.0 0.00 0.00 0.00 83 1012.5
20260906130037 -17 0.0 0.0 0.00 0.00 0.00 1012.3
20260906124542 -17 0.0 0.0 0.00 0.00 0.00 1012.4
20260906123105 -17 0.0 0.0 0.00 0.00 0.00 1012.2
20260906121536 -17 0.0 0.0 0.00 0.00 0.00 1012.2
20260906120032 -17 0.0 0.0 0.00 0.00 0.00 1012.2
20260906114530 -17 0.0 0.0 0.00 0.00 0.00 1012.1
20260906113032 -17 0.0 0.0 0.00 0.00 0.00 1012.1
20260906111531 -17 0.0 0.0 0.00 0.00 0.00 1012.0
20260906110029 -17 0.0 0.0 0.00 0.00 0.00 1012.0
20260906104531 -17 0.0 0.0 0.00 0.00 0.00 1011.9
20260906103027 -17 0.0 0.0 0.00 0.00 0.00 1011.8
20260906101526 -17 0.0 0.0 0.00 0.00 0.00 1011.7
20260906100027 -17 0.0 0.0 0.00 0.00 0.00 1011.6
20260906094524 -17 0.0 0.0 0.00 0.00 0.00 1011.4
20260906093024 -17 0.0 0.0 0.00 0.00 0.00 1011.2
20260906091523 -17 0.0 0.0 0.00 0.00 0.00 1010.9
20260906090018 -17 0.0 0.0 0.00 0.00 0.00 1010.8
20260906084614 -17 0.0 0.0 0.00 0.00 0.00 1010.9
20260906083040 -17 0.0 0.0 0.00 0.00 0.00 1010.9
20260906081536 -17 0.0 0.0 0.00 0.00 0.00 1010.9
20260906080031 25 301 0.0 0.0 0.00 0.00 0.00 80 1010.7
20260906074528 25 301 0.0 0.0 0.00 0.00 0.00 81 1010.8
20260906073026 25 301 0.0 0.0 0.00 0.00 0.00 81 1010.9
20260906071525 25 301 0.0 0.0 0.00 0.00 0.00 81 1010.9
20260906070023 25 301 0.0 0.0 0.00 0.00 0.00 82 1010.9
20260906064522 25 301 0.0 0.0 0.00 0.00 0.00 83 1011.0
20260906063021 25 301 0.0 0.0 0.00 0.00 0.00 83 1011.1
20260906061519 25 301 0.0 0.0 0.00 0.00 0.00 83 1011.4
20260906060008 26 301 0.0 0.0 0.00 0.00 0.00 83 1011.7
20260906054508 26 301 0.0 0.0 0.00 0.00 0.00 83 1011.7
20260906053006 26 301 0.0 0.0 0.00 0.00 0.00 83 1011.9
20260906050007 26 301 0.0 0.0 0.00 0.00 0.00 83 1011.9
20260906044505 26 301 0.0 0.0 0.00 0.00 0.00 83 1011.5
20260906043005 26 301 0.0 0.0 0.00 0.00 0.00 83 1011.4
20260906040003 27 301 0.0 0.0 0.00 0.00 0.00 83 1011.5
20260906034501 26 301 0.0 0.0 0.00 0.00 0.00 83 1012.0
20260906033001 27 301 0.0 0.0 0.00 0.00 0.00 83 1012.3
20260906031701 27 301 0.0 0.0 0.00 0.00 0.00 83 1012.2
20260906030039 27 301 0.0 0.0 0.00 0.00 0.00 83 1012.0
20260906024544 27 301 0.0 0.0 0.00 0.00 0.00 83 1012.0
20260906023047 27 301 0.0 0.0 0.00 0.00 0.00 83 1012.0
20260906021534 27 301 0.0 0.0 0.00 0.00 0.00 83 1012.0
20260906020037 27 301 0.0 0.0 0.00 0.00 0.00 83 1011.6
20260906014533 27 301 0.0 0.0 0.00 0.00 0.00 82 1011.3
20260906013040 27 301 0.0 0.0 0.00 0.00 0.00 82 1011.1
20260906011529 27 301 0.0 0.0 0.00 0.00 0.00 82 1010.5
20260906010028 27 301 0.0 0.0 0.00 0.00 0.00 82 1010.2
20260906004528 27 301 0.0 0.0 0.00 0.00 0.00 81 1010.2
20260906003025 28 301 0.0 0.0 0.00 0.00 0.00 80 1010.0
20260906001524 28 301 0.0 0.0 0.00 0.00 0.00 79 1010.0
20260906000036 28 301 0.0 0.0 0.00 0.00 0.00 80 1010.1
20260905234520 29 301 0.0 0.0 0.00 0.00 0.00 78 1010.2
20260905233020 29 301 0.0 0.0 0.00 0.00 0.00 78 1010.5
20260905231518 29 301 0.0 0.0 0.00 0.00 0.00 79 1010.2
20260905230016 30 301 0.0 0.0 0.00 0.00 0.00 78 1010.3
20260905224516 30 301 0.0 0.0 0.00 0.00 0.00 78 1010.5
20260905223014 30 301 0.0 0.0 0.00 0.00 0.00 76 1010.5
20260905221513 30 301 0.0 0.0 0.00 0.00 0.00 76 1010.4
20260905220013 30 301 0.0 0.0 0.00 0.00 0.00 77 1010.4
20260905214512 30 301 0.0 0.0 0.00 0.00 0.00 77 1010.5
20260905213041 30 301 0.0 0.0 0.00 0.00 0.00 75 1010.5
20260905211550 31 301 0.0 0.0 0.00 0.00 0.00 74 1010.7
20260905210034 31 301 0.0 0.0 0.00 0.00 0.00 74 1011.0
20260905204537 31 301 0.0 0.0 0.00 0.00 0.00 73 1011.2
20260905203031 32 301 0.0 0.0 0.00 0.00 0.00 74 1011.5
20260905201529 32 301 0.0 0.0 0.00 0.00 0.00 75 1011.6
20260905200029 32 301 0.0 0.0 0.00 0.00 0.00 73 1011.8
20260905194524 32 301 0.0 0.0 0.00 0.00 0.00 72 1012.0
20260905193022 32 301 0.0 0.0 0.00 0.00 0.00 76 1012.2
20260905191519 32 301 0.0 0.0 0.00 0.00 0.00 75 1012.5
20260905190016 32 301 0.0 0.0 0.00 0.00 0.00 72 1012.6
20260905184540 32 301 0.0 0.0 0.00 0.00 0.00 74 1012.4
20260905183029 31 301 0.0 0.0 0.00 0.00 0.00 78 1012.8
20260905181508 30 301 0.0 0.0 0.00 0.00 0.00 82 1013.1
20260905180003 30 301 0.0 0.0 0.00 0.00 0.00 82 1013.1
20260905174600 30 301 0.0 0.0 0.00 0.00 0.00 81 1013.6
20260905173106 29 301 0.0 0.0 0.00 0.00 0.00 69 1013.9
20260905171601 28 301 0.0 0.0 0.00 0.00 0.00 56 1014.0
20260905170051 28 301 0.0 0.0 0.00 0.00 0.00 57 1014.0
20260905164550 28 301 0.0 0.0 0.00 0.00 0.00 57 1014.1
20260905163047 29 301 0.0 0.0 0.00 0.00 0.00 58 1014.2
20260905161547 28 301 0.0 0.0 0.00 0.00 0.00 58 1014.4
20260905160043 28 301 0.0 0.0 0.00 0.00 0.00 60 1014.4
20260905154508 27 301 0.0 0.0 0.00 0.00 0.00 59 1014.4
20260905153006 27 301 0.0 0.0 0.00 0.00 0.00 60 1014.5
20260905151504 27 301 0.0 0.0 0.00 0.00 0.00 60 1014.5
20260905150004 26 301 0.0 0.0 0.00 0.00 0.00 61 1014.4
20260905144505 26 301 0.0 0.0 0.00 0.00 0.00 61 1014.5